Home   Weather   Chongqing   Past weeks

Flag for China Past Weather in Chongqing, Chongqing Municipality, China — Yesterday and Last 2 Weeks

Now
48 °F

Haze.


Feels Like: 48 °F
Forecast: 45 / 53 °F
Wind: 1 mph from North

Location: Chongqing Airport

Current Time: Jan 19, 2017 at 10:36:55 am

Latest Report: Jan 19, 2017 at 10:00 am


Visibility: 3 mi

Pressure: 30.39 "Hg

Humidity: 66%

Dew Point: 37 °F

Location of ChongqingLocation

Past Weather in Chongqing — Graph

°F

Chongqing Temperature Yesterday

Maximum temperature yesterday: 50 °F (at 11:00 am)
Minimum temperature yesterday: 46 °F (at 4:00 am)
Average temperature yesterday: 49 °F

High & Low Weather Summary for the Past Weeks

 TemperatureHumidityPressure
High55 °F (Jan 4, 3:00 pm)94% (Jan 6, 7:00 am)30.36 "Hg (Jan 6, 7:00 am)
Low39 °F (Jan 13, 2:00 am)44% (Jan 17, 3:00 pm)29.89 "Hg (Jan 6, 3:00 pm)
Average48 °F76%30.14 "Hg
* Reported Jan 4 9:00 am — Jan 19 9:00 am, Chongqing, Weather by CustomWeather, © 2017

Note: Actual official high and low records may vary slightly from our data, if they occured in-between our weather recording intervals... More about our weather records

Advertising

Chongqing Weather History for the Previous 24 Hours

Scroll right to see more
 ConditionsComfort  
Time TempWeatherWind HumidityBarometerVisibility
9:00 am
Thu, Jan 19
46 °FHaze.3 mph71%30.36 "Hg3 mi
8:00 am46 °FSunny.1 mph66%30.36 "Hg10 mi
7:00 am46 °FClear.1 mph71%30.33 "Hg10 mi
6:00 am45 °FClear.3 mph76%30.30 "Hg10 mi
5:00 am46 °FClear.3 mph76%30.30 "Hg10 mi
4:00 am45 °FClear.3 mph76%30.30 "Hg10 mi
3:00 am46 °FClear.3 mph66%30.30 "Hg10 mi
2:00 am48 °FClear.3 mph62%30.30 "Hg10 mi
1:00 am48 °FClear.3 mph62%30.30 "Hg10 mi
12:00 am48 °FClear.6 mph62%30.30 "Hg10 mi
11:00 pm
Wed, Jan 18
48 °FClear.6 mph62%30.27 "Hg10 mi
10:00 pm48 °FClear.6 mph62%30.27 "Hg10 mi
9:00 pm50 °FClear.6 mph58%30.24 "Hg10 mi
8:00 pm50 °FPassing clouds.8 mph58%30.21 "HgN/A
7:00 pm50 °FPassing clouds.6 mph58%30.18 "HgN/A
6:00 pm50 °FScattered clouds.6 mph58%30.15 "HgN/A
5:00 pm50 °FPassing clouds.3 mph58%30.15 "HgN/A
4:00 pm50 °FScattered clouds.3 mph58%30.15 "HgN/A
3:00 pm50 °FMore clouds than sun.1 mph58%30.15 "HgN/A
2:00 pm50 °FScattered clouds.3 mph58%30.18 "HgN/A
1:00 pm50 °FOvercast.3 mph58%30.21 "HgN/A
12:00 pm50 °FOvercast.3 mph58%30.27 "Hg6 mi
11:00 am50 °FPassing clouds.3 mph58%30.27 "Hg5 mi
10:00 am48 °FPassing clouds.1 mph62%30.27 "Hg4 mi
Weather by CustomWeather, © 2017

See weather overviewHow to use our weather pages